This demonstration page uses our WeatherBlox Daily Observations layout. Learn more.

Left ArrowRight Arrow

39.08367, -84.50855

Hourly Observations for January 31, 2015

Temp ( °F °C ) Dew Point ( °F °C ) Humidity (%) Winds ( mph kmh ) Pressure ( in mb ) Visibility ( mi km ) Precip ( " mm )
12:53 am 00:53 Clear 17 -8.3 15 -9.4 92 92 Calm 30.48 1032 9 14.48406 0 0
1:53 am 01:53 Clear 17 -8.3 15 -9.4 92 92 Calm 30.47 1032 9 14.48406 0 0
2:53 am 02:53 Clear 16 -8.9 14 -10 92 92 Calm 30.47 1032 7 11.26538 0 0
3:53 am 03:53 Clear 16 -8.9 14 -10 92 92 Calm 30.45 1031 7 11.26538 0 0
4:53 am 04:53 Clear 15 -9.4 13 -10.6 91 91 Calm 30.44 1031 7 11.26538 0 0
5:53 am 05:53 Clear 15 -9.4 13 -10.6 91 91 Calm 30.42 1030 7 11.26538 0 0
6:53 am 06:53 Clear 14 -10 11 -11.7 88 88 VRB 3 6 30.43 1030 7 11.26538 0 0
7:53 am 07:53 Sunny with Mist and Fog 14 -10 11 -11.7 88 88 Calm 30.44 1031 6 9.65604 0 0
8:53 am 08:53 Sunny 18 -7.8 17 -8.3 96 96 Calm 30.44 1031 7 11.26538 0 0
9:53 am 09:53 Sunny 24 -4.4 19 -7.2 81 81 S 5 7 30.43 1031 10 16.0934 0 0
10:53 am 10:53 Sunny 30 -1.1 20 -6.7 66 66 SSW 6 9 30.43 1030 10 16.0934 0 0
11:53 am 11:53 Sunny 35 1.7 19 -7.2 52 52 SSW 9 15 30.4 1030 10 16.0934 0 0
12:53 pm 12:53 Sunny 36 2.2 18 -7.8 48 48 SW 12 19 30.37 1029 10 16.0934 0 0
1:53 pm 13:53 Sunny 37 2.8 19 -7.2 48 48 SSW 10 17 30.34 1027 10 16.0934 0 0
2:53 pm 14:53 Sunny 38 3.3 19 -7.2 46 46 WSW 9 15 30.33 1027 10 16.0934 0 0
3:53 pm 15:53 Sunny 38 3.3 19 -7.2 46 46 SW 8 13 30.31 1027 10 16.0934 0 0
4:53 pm 16:53 Sunny 37 2.8 20 -6.7 50 50 SSW 9 15 30.3 1026 10 16.0934 0 0
5:53 pm 17:53 Mostly Sunny 35 1.7 20 -6.7 54 54 SSW 5 7 30.31 1026 10 16.0934 0 0
6:53 pm 18:53 Clear 32 0 23 -5 69 69 S 3 6 30.32 1027 10 16.0934 0 0
7:53 pm 19:53 Cloudy 33 0.6 24 -4.4 70 70 SW 3 6 30.31 1027 10 16.0934 0 0
8:53 pm 20:53 Cloudy with Light Rain 34 1.1 26 -3.3 73 73 SW 5 7 30.3 1026 10 16.0934 0 0.0254
9:53 pm 21:53 Cloudy 33 0.6 28 -2.2 82 82 Calm 30.29 1026 10 16.0934 0 0.0254
10:53 pm 22:53 Cloudy with Light Wintry Mix 32 0 29 -1.7 88 88 Calm 30.27 1025 9 14.48406 0 0.0254
11:53 pm 23:53 Cloudy with Light Wintry Mix 32 0 31 -0.6 96 96 Calm 30.26 1025 6 9.65604 0 0.0254

Powered by AerisWeather